Yaogan 40-03-01

operational
NORAD ID: 65544 Int'l Des: 2025-199 Owner: CAST Country: CN Constellation: yaogan
LEOCIRCULARPOLAR

Über Yaogan 40-03-01

Beschreibung wird geladen...

Live-Position

3D-Globus wird geladen...

Nächste Überflüge

Höhenverlauf

Altitude vs Time

uPlot chart will show altitude changes over time

Zweizeiliger Elementsatz

1 65544U 25199A 25303.96886601 .00000274 00000-0 10576-3 0 9992
2 65544 85.9887 146.4632 0015468 84.6346 275.6609 14.26305882 7744
Epoch: 30. Okt. 2025 • Age: 5 hours

Aktueller Status

Höhe 806.1 km
Geschwindigkeit 7.46 km/s
Subsatellitenpunkt 76.15°N, 53.13°E
Startdatum 6. Sept. 2025
Alter 0.1 years
Typ military

Technische Details

Klassifizierung Payload
Masse 500.00 kg
Trockenmasse 500.00 kg
Gesamtmasse 500.00 kg
Länge 2.00 m
Durchmesser 1.50 m
Spannweite 4.00 m
Form Box + 2 Pan
Hersteller DFHZ
Bus-Typ YG40
Phasenstatus In Orbit
Besitzer/Staat CAST/CN

Große Konstellationen

Loading constellations...